Location: La Pernelle
(49.6188°N, 1.2999°W)
Time: 09:46:31
(UTC+00:00)

Cosmos 1025 Rocket - Pass Details

Date: 12 June 2021
Orbit: 593 x 619 km, 82.5° (Epoch: 27 July)

Event Time Altitude Azimuth Distance (km) Brightness Sun altitude
Exits shadow 21:55:40 17° 157° (SSE) 1,579 4.5 -11.7°
Maximum altitude 21:58:42 42° 93° (E) 889 3.6 -11.9°
Drops below altitude 10° 22:02:51 10° 23° (NNE) 1,988 6.2 -12.3°
Sets 22:05:10 0° 16° (NNE) 2,895 7.2 -12.4°
